Flag for Pakistan Weather past 2 weeks in Peshawar, Pakistan

Now
99 °F

Scattered clouds.


Feels Like: 98 °F
Forecast: 66 / 101 °F
Wind: 12 mph from Northeast

Location: Peshawar Airport

Current Time: May 5, 2015 at 3:22:27 PM

Latest Report: May 5, 2015 at 3:00 PM


Visibility: 3 mi

Pressure: 29.71 "Hg

Humidity: 27%

Dew point: 59 °F

Location of PeshawarLocation

Historic Weather in Peshawar — Graph

°F

Peshawar temperature yesterday

Maximum temperature yesterday: 97 °F (at 3:00 PM)
Minimum temperature yesterday: 68 °F (at 5:00 AM)
Average temperature yesterday: 82 °F

Past Weeks' High & Low Weather Summary

 TemperatureHumidityPressure
High99 °F (Apr 24, 3:00 PM)94% (Apr 27, 9:00 AM)29.95 "Hg (Apr 27, 9:00 AM)
Low64 °F (Apr 21, 4:59 AM)22% (Apr 22, 4:00 PM)29.65 "Hg (Apr 22, 3:00 PM)
Average79 °F54%29.80 "Hg
* Reported Apr 20 2:00 PM — May 5 2:00 PM, Peshawar, Weather by CustomWeather, © 2015

Note: Actual official high and low records may vary slightly from our data, if they occured in-between our weather recording intervals... More about our weather records

Advertising

Peshawar weather history for previous 24 hours

 ConditionsComfort  
Time TempWeatherWind HumidityBarometerVisibility
2:00 PM
Tue, May 5
99 °FScattered clouds.9 mph27%29.74 "Hg3 mi
1:00 PM99 °FPartly sunny.7 mph31%29.77 "Hg3 mi
12:00 PM97 °FPartly sunny.5 mph32%29.77 "Hg3 mi
11:00 AM93 °FPartly sunny.7 mph36%29.80 "Hg3 mi
10:00 AM90 °FScattered clouds.7 mph41%29.80 "Hg3 mi
9:00 AM88 °FScattered clouds.5 mph49%29.80 "Hg2 mi
8:00 AM81 °FHaze.5 mph58%29.80 "Hg2 mi
7:00 AM75 °FHaze.5 mph65%29.80 "Hg2 mi
6:00 AM73 °FScattered clouds.5 mph69%29.80 "Hg2 mi
4:59 AM73 °FPassing clouds.No wind65%29.77 "Hg2 mi
4:00 AM73 °FPassing clouds.No wind65%29.80 "Hg2 mi
3:00 AM73 °FPassing clouds.5 mph65%29.80 "Hg2 mi
1:00 AM75 °FPassing clouds.7 mph61%29.83 "Hg2 mi
12:00 AM77 °FPassing clouds.5 mph57%29.83 "Hg2 mi
11:00 PM
Mon, May 4
81 °FPassing clouds.5 mph58%29.86 "Hg2 mi
10:00 PM82 °FPassing clouds.5 mph51%29.86 "Hg2 mi
9:00 PM84 °FPassing clouds.5 mph48%29.83 "Hg2 mi
8:00 PM86 °FPassing clouds.5 mph46%29.80 "Hg2 mi
7:00 PM90 °FPassing clouds.7 mph38%29.77 "Hg2 mi
6:00 PM93 °FScattered clouds.7 mph34%29.77 "Hg3 mi
5:00 PM95 °FScattered clouds.5 mph32%29.77 "Hg3 mi
4:00 PM97 °FScattered clouds.7 mph32%29.77 "Hg3 mi
3:00 PM97 °FHaze.7 mph32%29.80 "Hg3 mi
Weather by CustomWeather, © 2015

See weather overviewHow to use our weather pages